Regional Weather Roundup
Issued by NWS

Home | Current Version | Previous Version | Graphics & Text | Print | Product List | Glossary On
Versions: 1 2 3 4 5 6 7 8 9 10 11 12 13 14 15 16 17 18 19 20 21 22 23 24 25 26 27 28 29 30 31 32 33 34 35 36 37 38 39 40 41 42 43 44 45 46 47 48 49 50
000
ASUS43 KLMK 240202
RWRKY
KENTUCKY REGIONAL WEATHER ROUNDUP
NATIONAL WEATHER SERVICE LOUISVILLE KY
1000 PM EDT WED MAY 23 2018

NOTE "FAIR" INDICATES FEW OR NO CLOUDS BELOW 12,000 FEET
WITH NO SIGNIFICANT WEATHER AND/OR OBSTRUCTIONS TO VISIBILITY.

KYZ001>023-026-027-061>063-070>075-240300-
WESTERN AND SOUTH CENTRAL KENTUCKY

CITY           SKY/WX    TMP DP  RH WIND       PRES   REMARKS
PADUCAH        FAIR      74  67  78 CALM      30.09R
HENDERSON      NOT AVBL
OWENSBORO      FAIR      79  64  60 NE3       30.11R
HOPKINSVILLE   FAIR      76  66  71 N3        30.09R
BOWLING GREEN  FAIR      78  66  66 N3        30.10R
GLASGOW        NOT AVBL
$$

KYZ024-025-028>034-038-045-046-053-240300-
NORTH CENTRAL KENTUCKY

CITY           SKY/WX    TMP DP  RH WIND       PRES   REMARKS
LOUISVILLE/SDF MOCLDY    78  59  51 NE5       30.12R
LOUISVILLE/LOU FAIR      75  61  61 N3        30.12R
FORT KNOX      FAIR      74  60  61 N5        30.13R
$$

KYZ035>037-039>044-047>052-055>060-089>105-240300-
NORTHEAST KENTUCKY

CITY           SKY/WX    TMP DP  RH WIND       PRES   REMARKS
LEXINGTON      FAIR      69  59  70 N7        30.14R
COVINGTON      MOCLDY    71  55  56 E7        30.15R
FRANKFORT      FAIR      73  58  59 NE3       30.13R
$$

KYZ054-064>069-076>088-106>120-240300-
SOUTHEAST KENTUCKY

CITY           SKY/WX    TMP DP  RH WIND       PRES   REMARKS
JACKSON        FAIR      69  63  81 CALM      30.14R
LONDON         FAIR      72  63  73 CALM      30.12R
SOMERSET       NOT AVBL
MIDDLESBORO    FAIR      70  65  84 CALM      30.12R
MONTICELLO     FAIR      70  65  84 W7        30.13R
$$





USA.gov is the U.S. government's official web portal to all federal, state and local government web resources and services.